C/2018 A6 ( Gibbs )

Japanese version
Home page
Updated on July 30, 2018

---------------------------------------------------------------------

* Profile

Discovery Date January 15, 2018
Magnitude 19.3 mag
Discoverer A. R. Gibbs (Mount Lemmon)

* Pictures

* Orbital Elements

Epoch 2019 July 16.0 TT = JDT 2458680.5
T 2019 July 14.28407 TT                                 MPCW
q   3.0179849            (2000.0)            P               Q
n   0.01637999     Peri.  264.52449     -0.16530030     +0.93044797
a  15.3553721      Node   340.38599     +0.22096548     -0.28821261
e   0.8034574      Incl.   76.95613     -0.96117120     -0.22627433
P  60.17
From 170 observations 2018 Jan. 15-May 10, mean residual 0".4.

* Finding Charts

* Magnitudes Graph

        m1 = 8.5 + 5 log d + 10.0 log r

---------------------------------------------------------------------

The orbital elements are published on M.P.E.C. 2018-K95.
The charts are made with StellaNavigator Ver.10 (AstroArts).
The magnitudes graphs are made with Comet for Windows.

---------------------------------------------------------------------

Copyright(C) Seiichi Yoshida (comet@aerith.net). All rights reserved.